This is the latest recevied weather packets stored in our database for station/object W9LRT-WX. If no packets are shown the sender has not sent any weather packets the latest 10 day(s).
| Time | Temp. | Humidity | Pressure | Rain* | Wind** | Luminosity | Snow |
|---|---|---|---|---|---|---|---|
| 1777793701 | 5° C | 69% | 1014.3 hPa | 0 mm | - | 0 W/m² | - |
| 1777792802 | 5° C | 69% | 1014.4 hPa | 0 mm | - | 0 W/m² | - |
| 1777791903 | 5.56° C | 68% | 1014.5 hPa | 0 mm | - | 0 W/m² | - |
| 1777791003 | 5.56° C | 67% | 1014.7 hPa | 0 mm | - | 0 W/m² | - |
| 1777790101 | 5.56° C | 67% | 1014.8 hPa | 0 mm | - | 0 W/m² | - |
| 1777789201 | 5.56° C | 67% | 1015 hPa | 0 mm | - | 0 W/m² | - |
| 1777788301 | 5° C | 68% | 1015.1 hPa | 0 mm | - | 0 W/m² | - |
| 1777787402 | 5° C | 69% | 1015.2 hPa | 0 mm | - | 0 W/m² | - |
| 1777786501 | 5° C | 70% | 1015.3 hPa | 0 mm | - | 0 W/m² | - |
| 1777785601 | 5° C | 70% | 1015.4 hPa | 0 mm | - | 0 W/m² | - |
| 1777784702 | 5° C | 70% | 1015.5 hPa | 0 mm | - | 0 W/m² | - |
| 1777783802 | 5° C | 71% | 1015.5 hPa | 0 mm | - | 0 W/m² | - |
| 1777782903 | 5° C | 71% | 1015.5 hPa | 0 mm | - | 0 W/m² | - |
| 1777782002 | 5° C | 72% | 1015.5 hPa | 0 mm | - | 0 W/m² | - |
| 1777781101 | 5° C | 74% | 1015.7 hPa | 0 mm | - | 0 W/m² | - |
| 1777780200 | 5° C | 74% | 1015.7 hPa | 0 mm | - | 0 W/m² | - |
| 1777779301 | 5° C | 73% | 1015.7 hPa | 0 mm | - | 0 W/m² | - |
| 1777778404 | 5° C | 70% | 1015.8 hPa | 0 mm | - | 0 W/m² | - |
| 1777777502 | 5.56° C | 66% | 1015.9 hPa | 0 mm | - | 0 W/m² | - |
| 1777776601 | 5.56° C | 65% | 1015.9 hPa | 0 mm | - | 0 W/m² | - |
| 1777775701 | 5.56° C | 66% | 1015.8 hPa | 0 mm | - | 0 W/m² | - |
| 1777774799 | 6.11° C | 65% | 1015.9 hPa | 0 mm | - | 0 W/m² | - |
| 1777773898 | 6.11° C | 62% | 1015.8 hPa | 0 mm | - | 0 W/m² | - |
| 1777772998 | 6.67° C | 62% | 1015.8 hPa | 0 mm | - | 0 W/m² | - |
| 1777772093 | 6.67° C | 59% | 1015.6 hPa | 0 mm | - | 0 W/m² | - |
* Rain latest hour (hover to see other rain measurements)
** Current wind speed in m/s (hover to see current wind gust speed)